STARLINK-31738, 59535

Orbit data source: Space-Track

STARLINK-31738, 59535 is a payload satellite owned by SpaceX/Seattle (US) in LEO that was launched on Thu, 18 Apr 2024 UTC via an FALCON 9 launch vehicle from the Air Force Eastern Test Range (AFETR). Payload-class satellites include a variety of spacecraft equipped with specific instruments for various scientific and technological missions. These include communications satellites like Starlink; space stations such as the ISS; scientific satellites like the Hubble; Earth observation satellites from companies like Planet Labs, Umbra, and HawkEye 360; GPS; miniature CubeSats for education and research; and military/defense satellites.

Loading next visibility...
Identifier
59535, 2024-074B
Orbit
LEO
Country
Flag of USUS
Related business
Manufacturer
SpaceX/Seattle
Mission
Operational Commercial Communications
Bus & Motor
STARLINK V2M, Unknown motor
Mass
730 kg wet, ~700 kg dry
Launch date (UTC)
2024-04-18 (2 years ago)
Launch vehicle
FALCON 9
Launch site
Air Force Eastern Test Range (AFETR)
Object type
Payload
Rocket body
Debris
Shape & HBR
Box + 2 Pan, 17.7 m
Radar Cross Section
33.884 m², Large (>1 m²)

Expand to show TLE details & history
Last TLE update: 2 days ago

TLE from 2 days ago
0 STARLINK-31738
1 59535U 24074B   26171.25469413  .00001633  00000-0  68831-4 0  9998
2 59535  43.0018 120.4638 0001220 279.9956  80.0758 15.27585099121745
Epoch: 2026-06-20T06:06Z
TLE epoch observation values (Epoch: 2026-06-20T06:06:45.572Z)
Latitude
-0.00003°
Longitude
120.30193°
Altitude
482.665 km
Speed
7.626 km/s
True Right ascension
08h 01m 51s
True Declination
0° 00' 00"
Sunlit
Object was in daylight at epoch
Visualization orbit readout
Latitude
Unknown
Longitude
Unknown
Altitude
Unknown
Speed
Unknown
Apparent Right ascension
Unknown
Apparent Declination
Unknown
Sunlit
N/A
Visualization observer readout
Local Sidereal Time
21:24:54
Azimuth
Unknown
Elevation
Unknown
Doppler factor
Unknown
Orbital elements
Apogee altitude
485.816 km
Perigee altitude
484.141 km
Semi-major axis
6,863.116 km
Eccentricity
0.00012
Inclination
43.0018°
RAAN
120.4638°
Arg. of periapsis
279.9956°
True anomaly
80.08957°
Mean anomaly
80.0758°
Eccentric anomaly
80.08269°
Mean motion
3.81734 °/min
Orbital period
94.31 mins
BSTAR
0.000068831
Loading maneuver chart data...
Computing Atmospheric mass density...
Loading historical data...
Loading historical data...
Loading historical data...
Loading historical data...
Loading historical data...
Loading historical data...
Loading historical data...

Documentation

Showing up to 5 results
|